Sacramento, CA

10:40 AM PST on December 10, 2016 (GMT -0800)
Sacramento International

Weather History for KSMF - January, 2014

Change the Weather History Date:

Wednesday, January 29, 2014

  Actual Average Record
Temperature  
Mean Temperature 55 °F -  
Max Temperature 62 °F 55 °F 67 °F (1976)
Min Temperature 48 °F 38 °F 25 °F (1979)
Degree Days  
Heating Degree Days 10    
Growing Degree Days 5 (Base 50)    
Moisture  
Dew Point 53 °F    
Average Humidity 87    
Maximum Humidity 94    
Minimum Humidity 71    
Precipitation  
Precipitation 0.04 in - - ()
Sea Level Pressure  
Sea Level Pressure 30.07 in    
Wind  
Wind Speed 10 mph (South)    
Max Wind Speed 17 mph    
Max Gust Speed 25 mph    
Visibility 10 miles    
Events Rain    
Averages and records for this station are not official NWS values.
T = Trace of Precipitation, MM = Missing Value Source: NWS Daily Summary

Daily Weather History Graph

Daily Weather History Graph

Search for Another Location

Airport or City:

Trip Planner

Search our weather history database for the weather conditions in past years. The results will help you decide how hot, cold, wet, or windy it might be!

Date:

Astronomy

Jan. 29, 2014 Rise Set
Actual Time 7:14 AM PST 5:24 PM PST
Civil Twilight 6:46 AM PST 5:53 PM PST
Nautical Twilight 6:14 AM PST 6:25 PM PST
Astronomical Twilight 5:43 AM PST 6:56 PM PST
Moon 5:55 AM PST (1/29) 4:30 PM PST (1/29)
Length of Visible Light 11h 06m
Length of Day
10h 10m
Waning Crescent, 2% of the Moon is Illuminated
Jan 29
Waning Crescent
Jan 30
New
Feb 6
First Quarter
Feb 14
Full
Feb 22
Last Quarter

Hourly Weather History & Observations

Time (PST) Temp. Dew Point Humidity Pressure Visibility Wind Dir Wind Speed Gust Speed Precip Events Conditions
12:53 AM 48.9 °F 39.9 °F 71% 30.16 in 10.0 mi ESE 6.9 mph - N/A   Clear
1:53 AM 53.1 °F 50.0 °F 89% 30.16 in 10.0 mi SSE 8.1 mph - N/A   Scattered Clouds
2:53 AM 53.1 °F 51.1 °F 93% 30.16 in 10.0 mi SE 6.9 mph - N/A   Mostly Cloudy
3:53 AM 54.0 °F 51.1 °F 90% 30.15 in 10.0 mi SSE 8.1 mph - N/A   Mostly Cloudy
4:53 AM 55.0 °F 53.1 °F 93% 30.14 in 10.0 mi SSE 9.2 mph - N/A   Mostly Cloudy
5:53 AM 55.9 °F 54.0 °F 93% 30.14 in 10.0 mi South 10.4 mph - N/A   Overcast
6:53 AM 57.0 °F 55.0 °F 93% 30.13 in 10.0 mi South 13.8 mph - N/A   Overcast
7:51 AM 57.2 °F 53.6 °F 88% 30.12 in 10.0 mi SSE 10.4 mph - N/A   Overcast
7:53 AM 57.0 °F 54.0 °F 89% 30.12 in 10.0 mi SSE 12.7 mph - N/A   Overcast
8:53 AM 57.9 °F 55.0 °F 90% 30.13 in 10.0 mi South 17.3 mph 25.3 mph 0.00 in   Overcast
9:53 AM 59.0 °F 55.0 °F 87% 30.13 in 10.0 mi SSE 16.1 mph 24.2 mph N/A   Overcast
10:53 AM 60.1 °F 55.9 °F 86% 30.13 in 10.0 mi South 16.1 mph 24.2 mph N/A   Overcast
11:06 AM 60.8 °F 55.4 °F 82% 30.13 in 10.0 mi South 17.3 mph - 0.00 in Rain Light Rain
11:53 AM 62.1 °F 55.9 °F 80% 30.11 in 10.0 mi South 15.0 mph - 0.00 in Rain Light Rain
12:53 PM 62.1 °F 55.0 °F 78% 30.09 in 10.0 mi South 13.8 mph - 0.00 in Rain Light Rain
1:53 PM 60.1 °F 55.9 °F 86% 30.05 in 10.0 mi South 13.8 mph - 0.01 in Rain Light Rain
2:53 PM 60.1 °F 55.9 °F 86% 30.04 in 10.0 mi South 13.8 mph - 0.00 in   Overcast
3:53 PM 59.0 °F 55.0 °F 87% 30.01 in 10.0 mi South 12.7 mph - N/A   Overcast
4:53 PM 59.0 °F 55.0 °F 87% 30.01 in 10.0 mi South 11.5 mph - N/A   Overcast
5:53 PM 57.9 °F 54.0 °F 87% 29.99 in 10.0 mi WNW 8.1 mph - N/A   Overcast
6:53 PM 57.0 °F 53.1 °F 87% 30.00 in 10.0 mi NW 5.8 mph - N/A   Overcast
7:45 PM 55.4 °F 53.6 °F 94% 30.00 in 10.0 mi WNW 4.6 mph - N/A   Overcast
7:53 PM 55.9 °F 53.1 °F 90% 30.00 in 10.0 mi Calm Calm - N/A   Overcast
8:53 PM 55.0 °F 52.0 °F 89% 29.99 in 10.0 mi Calm Calm - N/A   Mostly Cloudy
9:53 PM 55.0 °F 51.1 °F 86% 29.98 in 10.0 mi WNW 3.5 mph - 0.00 in Rain Light Rain
10:53 PM 54.0 °F 50.0 °F 86% 29.98 in 10.0 mi WNW 3.5 mph - 0.02 in Rain Light Rain
11:53 PM 53.1 °F 50.0 °F 89% 29.97 in 10.0 mi WNW 3.5 mph - 0.01 in Rain Light Rain